Wind_Speed
12 11 9 8 9 11 12 11 12 13 16 19 19 17 17 19 19 19 18 17 15 13 11 8 8 10 11 12 13 16 17 17 16 15 14 13 12 11 10 9 8 7 6 6
12 11 10 10 12 13 11 12 14 14 16 18 17 15 16 17 19 18 17 15 14 11 9 6 5 7 8 11 13 14 15 16 15 14 13 12 11 10 9 8 8 7 6 5
12 10 10 12 13 12 11 13 13 15 15 15 15 14 15 17 17 16 15 13 12 10 8 4 4 6 7 9 12 13 13 14 14 14 12 11 10 8 8 7 8 7 5 4
14 13 13 14 13 12 13 13 13 14 14 15 12 13 16 18 16 15 15 13 10 9 7 4 2 4 5 7 11 13 13 14 14 13 12 10 8 8 8 7 7 7 5 5
14 13 15 16 14 14 15 13 13 14 14 15 11 10 15 16 14 14 14 12 10 8 6 4 0 2 3 6 9 11 13 13 13 12 11 10 9 9 8 8 7 7 6 6
16 15 16 16 15 14 13 13 12 15 16 16 8 8 13 14 14 14 13 11 10 7 6 4 1 1 3 5 7 9 11 12 12 12 12 12 11 10 9 8 7 7 6 5
15 16 16 16 15 14 14 13 13 16 18 12 6 7 11 13 15 13 13 10 8 6 5 4 2 1 2 4 7 8 9 11 12 12 11 12 11 10 9 8 7 7 5 5
14 16 15 16 15 15 14 13 14 14 16 16 11 10 11 11 13 13 13 9 8 6 4 3 2 0 2 4 6 7 8 10 11 11 10 10 10 10 9 8 8 7 6 5
16 17 16 16 16 15 14 14 13 15 13 13 15 11 10 11 12 14 12 9 7 6 5 3 1 1 2 4 5 6 7 8 9 10 10 10 10 10 10 9 8 8 7 7
18 19 17 17 15 16 15 14 14 15 14 13 16 15 10 10 12 15 12 10 8 6 5 4 2 2 3 4 5 6 7 8 8 9 10 10 10 10 10 10 9 9 9 9
22 21 20 19 18 17 16 15 16 16 15 14 18 19 15 11 12 12 13 11 9 8 6 5 4 4 4 4 5 7 7 8 8 8 9 10 11 11 11 11 11 11 11 11
24 24 25 24 21 20 20 19 18 19 19 17 16 19 16 14 14 11 12 12 11 9 8 7 6 6 6 6 6 7 7 8 8 9 10 11 11 12 12 13 13 13 14 14
27 28 27 26 25 22 22 20 20 20 20 18 16 20 19 18 15 12 12 12 12 11 10 9 9 8 8 8 8 9 9 9 10 10 11 12 13 14 14 15 15 16 17 17
30 30 29 27 24 22 23 21 21 21 21 19 18 21 22 19 15 15 15 13 13 12 12 11 11 10 10 10 11 11 12 12 12 13 13 14 15 16 17 17 18 19 20 20
29 31 30 28 26 25 26 25 23 23 21 20 19 21 21 22 18 16 17 15 15 14 13 13 12 12 12 12 13 13 14 14 15 15 16 16 17 17 18 19 20 21 22 23
29 29 29 29 28 27 26 22 22 21 19 19 20 21 22 23 21 19 19 18 16 15 14 15 14 13 13 14 14 15 15 16 17 17 18 18 19 19 20 21 22 23 24 25
31 29 29 28 28 29 27 21 20 19 17 19 21 21 24 24 23 22 20 18 15 17 17 16 16 15 15 15 16 17 17 18 18 19 20 21 22 22 23 23 24 25 26 27
28 29 28 29 30 32 26 22 20 20 22 22 23 24 26 26 24 22 20 20 18 18 18 18 17 17 18 18 18 18 19 19 19 21 22 23 24 24 25 26 27 28 29 30
27 28 29 28 27 27 25 24 24 23 23 25 26 25 26 26 25 23 21 21 19 18 20 20 19 19 19 19 20 20 20 21 22 23 24 25 26 26 27 27 28 29 31 31
24 27 29 30 29 26 24 26 27 25 26 26 26 25 25 26 25 24 21 21 20 19 20 20 21 21 20 20 21 22 23 23 24 25 26 28 29 29 29 29 30 31 31 32
25 28 29 29 30 29 27 27 28 27 26 26 25 25 24 25 26 24 23 21 21 21 21 22 23 23 23 23 23 24 24 25 26 27 27 28 29 30 30 31 31 33 33 33
26 28 28 27 28 29 27 25 26 24 23 24 23 24 24 24 24 25 24 22 22 23 23 23 24 24 25 25 26 25 25 26 27 28 30 31 31 32 32 32 33 34 35 35
26 26 25 26 26 28 28 27 25 24 23 21 23 24 24 25 25 25 25 24 25 25 25 25 25 26 26 27 27 28 28 29 30 31 31 32 33 34 34 34 34 35 36 38
23 22 24 26 27 27 27 27 27 27 26 22 23 24 26 26 26 26 26 26 26 26 26 27 27 28 28 28 29 30 31 32 32 32 33 33 34 35 36 35 35 37 38 38
22 20 23 26 25 25 24 22 23 23 22 24 24 24 25 25 26 27 27 27 27 27 28 28 29 30 30 30 31 31 32 33 34 35 35 36 36 37 37 37 37 38 39 40
20 19 18 18 20 22 22 21 20 22 22 23 24 25 25 27 27 27 28 28 28 28 29 29 29 30 30 31 32 33 35 36 36 37 37 37 38 39 38 38 38 38 39 41
Wind_Direction
270 271 277 281 282 279 279 277 276 283 291 298 302 307 313 322 321 323 322 326 326 321 312 288 262 243 234 229 224 220 219 219 216 210 214 221 227 228 230 229 225 219 219 217
265 266 265 260 260 267 272 279 282 284 287 296 304 311 313 319 324 328 327 327 331 327 318 291 261 246 231 222 213 209 209 206 204 207 214 218 220 221 224 220 213 206 210 211
258 256 260 265 265 269 274 277 281 284 287 292 305 309 309 316 323 330 328 326 335 334 332 307 260 237 218 205 198 195 194 200 204 207 210 213 218 212 213 209 202 203 204 193
250 244 248 259 260 267 273 273 276 280 287 291 291 294 302 313 328 331 332 332 337 340 341 340 227 206 205 199 196 194 196 202 205 207 208 213 211 205 204 202 195 195 191 185
244 244 246 254 259 263 268 269 273 279 280 277 276 287 299 314 324 331 333 339 343 342 348 354 16 173 186 194 197 196 198 202 205 206 206 207 208 206 200 195 192 194 193 188
236 238 247 251 256 262 270 272 276 284 285 279 278 292 297 312 325 325 326 334 346 350 360 2 323 188 177 180 185 190 197 202 204 206 208 211 212 207 200 196 196 195 193 190
239 236 241 248 255 264 270 273 280 291 302 308 312 282 293 313 320 324 320 324 337 343 353 6 31 131 154 173 183 189 196 200 202 204 208 210 210 207 203 198 199 202 206 207
245 251 248 250 252 256 265 269 279 290 303 312 305 280 297 309 313 320 322 321 330 334 343 359 16 73 169 177 185 194 197 199 202 205 205 209 210 205 202 202 205 209 213 227
236 248 247 247 248 249 256 261 269 281 284 293 295 291 285 302 312 319 318 311 316 315 321 329 313 240 195 193 192 192 194 197 202 205 206 206 202 200 201 209 213 218 228 241
231 240 243 247 249 251 253 257 262 264 273 278 288 289 279 302 313 316 318 313 307 301 301 296 272 240 215 206 193 192 195 196 200 202 205 205 205 210 214 217 222 231 241 249
238 241 242 243 242 243 248 255 256 259 263 274 291 299 292 296 306 312 309 304 302 294 287 275 256 240 223 214 206 205 204 204 206 207 208 210 214 217 222 229 236 244 252 260
234 240 242 241 243 244 241 245 251 257 262 262 273 284 289 295 294 303 299 293 288 282 273 263 250 242 242 237 225 217 215 216 220 221 222 224 226 230 235 243 249 255 261 267
230 233 239 242 243 241 241 245 248 253 259 262 267 279 283 284 290 294 289 282 280 278 268 260 256 252 248 243 237 232 231 231 233 234 236 237 239 243 248 252 257 262 267 272
230 232 233 238 244 245 241 242 242 248 252 257 261 268 277 278 277 282 283 275 273 269 269 264 258 256 253 249 246 243 241 242 244 244 244 246 249 253 257 260 264 267 271 275
232 235 235 236 242 249 247 246 244 244 247 252 254 263 269 273 272 273 279 277 270 266 264 261 258 255 253 251 251 251 250 249 250 251 252 254 256 259 262 265 268 272 275 278
235 236 236 237 240 249 259 258 252 248 246 251 252 259 264 270 271 273 277 276 270 268 266 260 255 254 254 254 254 254 255 255 256 257 258 260 262 264 266 269 272 275 277 279
233 234 237 237 240 245 251 255 253 248 247 250 253 256 257 262 265 271 276 274 269 269 266 260 257 256 258 258 257 256 258 259 261 262 264 266 267 268 269 271 273 276 278 280
236 235 239 239 240 245 245 245 245 244 244 246 247 249 255 259 263 268 270 270 267 267 265 261 259 258 258 258 260 263 263 263 265 267 268 270 271 271 272 274 276 278 279 281
243 239 240 241 241 244 242 242 242 241 245 244 248 251 255 259 262 261 263 266 265 263 260 259 262 260 260 261 262 265 267 267 269 271 272 273 273 274 275 276 278 280 281 282
248 247 246 245 246 245 242 244 246 245 248 245 247 250 255 257 259 262 262 260 264 264 262 261 264 262 262 262 264 267 269 270 272 271 274 275 275 277 277 279 281 282 283 284
245 244 245 245 245 245 244 245 245 243 245 249 252 251 252 256 260 263 264 260 264 264 264 263 264 263 264 264 266 268 271 272 272 273 276 276 276 278 280 279 281 281 283 283
242 241 241 241 242 242 242 243 243 243 245 245 247 252 254 259 261 261 264 263 263 264 264 263 263 264 265 267 267 268 272 275 277 278 278 278 280 281 281 281 282 282 282 284
244 242 240 241 245 247 246 248 246 246 251 248 248 254 258 260 261 264 267 267 266 266 265 264 263 263 264 267 269 271 274 276 277 278 279 280 282 282 283 282 282 284 285 286
245 247 242 243 247 249 250 251 252 249 249 249 253 255 257 259 261 264 267 268 266 264 264 264 265 265 266 268 270 271 274 277 280 281 282 282 282 282 283 282 283 284 285 286
251 250 248 247 248 250 252 252 253 252 249 251 254 257 259 262 264 266 268 269 267 265 264 263 264 266 267 269 270 272 273 275 278 280 282 282 283 282 283 283 283 284 284 285
255 255 253 252 252 254 256 258 258 255 255 252 255 258 260 262 264 265 266 269 269 269 267 265 267 269 270 271 271 273 274 276 279 281 283 283 283 284 285 283 284 285 286 285
Height
5872 5873 5873 5874 5875 5876 5876 5876 5875 5874 5871 5869 5866 5863 5859 5856 5852 5848 5845 5841 5838 5836 5834 5833 5833 5834 5834 5836 5840 5843 5846 5850 5854 5857 5861 5864 5867 5869 5871 5872 5874 5875 5877 5878
5868 5870 5871 5872 5873 5873 5873 5873 5872 5871 5868 5866 5863 5860 5857 5854 5851 5847 5843 5841 5838 5836 5834 5832 5831 5833 5833 5835 5838 5841 5845 5849 5853 5856 5859 5862 5865 5867 5869 5871 5873 5874 5876 5877
5865 5868 5868 5869 5870 5870 5871 5870 5869 5868 5866 5863 5861 5858 5855 5851 5849 5846 5843 5840 5837 5835 5834 5832 5832 5833 5834 5836 5838 5841 5845 5848 5852 5855 5858 5861 5864 5866 5868 5870 5872 5874 5875 5876
5861 5864 5865 5866 5867 5867 5868 5867 5866 5865 5863 5861 5859 5856 5853 5849 5846 5845 5843 5840 5837 5835 5834 5833 5833 5834 5834 5836 5838 5841 5844 5848 5851 5855 5858 5861 5863 5865 5868 5869 5871 5873 5874 5876
5858 5860 5862 5863 5864 5864 5864 5863 5862 5861 5859 5856 5855 5853 5852 5848 5846 5844 5842 5841 5839 5837 5835 5834 5834 5835 5836 5837 5839 5841 5845 5848 5851 5854 5857 5860 5862 5865 5867 5869 5871 5872 5874 5875
5854 5857 5859 5860 5861 5861 5861 5860 5859 5857 5855 5851 5851 5851 5849 5847 5845 5843 5842 5841 5840 5838 5837 5836 5836 5836 5837 5838 5840 5842 5845 5848 5851 5854 5856 5859 5862 5864 5866 5868 5870 5872 5873 5875
5850 5852 5854 5856 5857 5858 5858 5858 5857 5854 5851 5847 5847 5848 5848 5846 5845 5844 5841 5840 5840 5839 5838 5837 5837 5837 5838 5839 5841 5843 5846 5848 5850 5853 5856 5858 5861 5863 5865 5867 5869 5871 5873 5874
5847 5849 5851 5852 5853 5855 5855 5855 5855 5853 5851 5848 5846 5846 5846 5844 5844 5843 5842 5840 5839 5839 5838 5838 5838 5838 5839 5840 5842 5844 5846 5848 5850 5853 5855 5858 5860 5862 5864 5867 5869 5870 5872 5873
5844 5846 5848 5848 5849 5851 5851 5852 5852 5851 5850 5849 5845 5843 5842 5843 5842 5842 5841 5840 5840 5839 5839 5839 5839 5839 5840 5841 5842 5844 5846 5848 5850 5852 5855 5857 5859 5861 5864 5866 5868 5869 5870 5872
5839 5841 5843 5844 5846 5847 5848 5849 5849 5848 5847 5847 5844 5841 5838 5840 5841 5841 5840 5839 5838 5838 5839 5839 5839 5839 5840 5841 5842 5844 5846 5848 5850 5852 5854 5856 5859 5861 5863 5864 5866 5867 5869 5870
5836 5837 5839 5840 5841 5843 5844 5845 5845 5845 5845 5845 5842 5841 5837 5837 5838 5839 5839 5839 5839 5839 5838 5838 5839 5840 5841 5842 5843 5845 5846 5848 5850 5852 5854 5856 5858 5860 5861 5863 5864 5865 5866 5867
5830 5832 5833 5834 5836 5837 5839 5840 5841 5841 5841 5842 5841 5842 5837 5835 5835 5835 5837 5837 5838 5838 5838 5838 5839 5840 5840 5842 5843 5844 5846 5847 5849 5851 5853 5854 5856 5858 5859 5860 5862 5863 5864 5864
5822 5825 5827 5829 5832 5832 5833 5835 5835 5836 5837 5838 5839 5840 5834 5833 5833 5833 5834 5835 5836 5836 5836 5837 5838 5839 5839 5840 5842 5843 5845 5846 5848 5849 5851 5852 5854 5855 5857 5858 5859 5859 5860 5860
5815 5817 5821 5823 5824 5824 5826 5828 5830 5831 5832 5833 5835 5834 5830 5829 5830 5831 5831 5831 5833 5833 5833 5835 5836 5837 5838 5839 5840 5841 5842 5844 5845 5847 5848 5850 5851 5852 5853 5854 5855 5855 5856 5856
5808 5811 5814 5816 5818 5819 5820 5821 5823 5824 5826 5828 5830 5829 5826 5825 5825 5826 5827 5828 5829 5830 5831 5832 5833 5834 5835 5836 5838 5839 5840 5841 5842 5844 5845 5846 5847 5848 5849 5849 5850 5850 5850 5850
5800 5803 5806 5809 5812 5812 5812 5813 5816 5818 5820 5822 5824 5825 5823 5822 5821 5822 5823 5824 5825 5825 5827 5829 5830 5831 5832 5833 5834 5835 5836 5837 5839 5840 5841 5841 5842 5843 5843 5844 5844 5844 5844 5844
5794 5797 5800 5803 5806 5806 5807 5809 5811 5812 5814 5818 5819 5820 5819 5818 5818 5819 5820 5820 5821 5822 5824 5825 5826 5827 5828 5830 5831 5831 5832 5833 5834 5835 5835 5836 5837 5837 5837 5838 5838 5838 5837 5837
5786 5790 5793 5796 5800 5800 5804 5803 5803 5806 5809 5811 5812 5813 5813 5814 5813 5814 5816 5817 5818 5818 5820 5821 5822 5823 5824 5825 5826 5827 5827 5828 5829 5829 5830 5830 5830 5831 5831 5831 5831 5831 5830 5829
5780 5783 5786 5789 5791 5793 5797 5798 5800 5801 5802 5804 5805 5807 5807 5808 5808 5809 5811 5812 5812 5814 5815 5816 5817 5818 5819 5820 5821 5822 5822 5822 5823 5823 5824 5824 5824 5824 5824 5823 5823 5822 5822 5821
5774 5777 5780 5782 5784 5787 5790 5791 5792 5794 5794 5796 5798 5800 5801 5802 5802 5803 5804 5806 5807 5809 5810 5811 5812 5812 5814 5815 5816 5816 5817 5817 5817 5816 5816 5817 5816 5816 5815 5815 5815 5814 5813 5812
5770 5771 5773 5776 5778 5781 5782 5783 5786 5788 5790 5790 5791 5793 5794 5796 5797 5798 5798 5800 5802 5803 5805 5806 5807 5807 5808 5808 5809 5809 5810 5810 5810 5810 5810 5809 5808 5807 5807 5806 5806 5805 5804 5802
5763 5765 5767 5770 5773 5776 5774 5776 5778 5780 5780 5781 5783 5785 5787 5790 5791 5792 5793 5793 5795 5797 5799 5799 5801 5801 5802 5802 5802 5802 5803 5802 5801 5802 5802 5801 5800 5799 5798 5797 5797 5795 5793 5792
5757 5758 5760 5764 5767 5767 5768 5769 5770 5772 5773 5774 5778 5780 5782 5784 5785 5787 5788 5789 5790 5791 5792 5793 5793 5794 5795 5796 5795 5795 5795 5794 5794 5793 5793 5793 5792 5790 5789 5789 5787 5786 5784 5782
5750 5751 5754 5757 5759 5761 5763 5763 5765 5766 5767 5769 5772 5775 5777 5778 5779 5780 5781 5782 5783 5784 5785 5785 5786 5786 5788 5788 5788 5788 5788 5787 5786 5785 5784 5783 5782 5781 5779 5778 5777 5776 5774 5772
5746 5747 5750 5751 5753 5755 5756 5757 5758 5759 5761 5763 5766 5768 5770 5771 5772 5773 5774 5775 5775 5776 5778 5778 5779 5779 5780 5780 5780 5780 5779 5779 5778 5777 5775 5774 5773 5771 5770 5768 5767 5765 5764 5762
5742 5744 5745 5747 5748 5750 5750 5751 5753 5756 5758 5758 5759 5762 5764 5765 5766 5766 5767 5768 5768 5769 5769 5770 5770 5771 5771 5771 5771 5771 5770 5769 5768 5767 5765 5764 5763 5761 5759 5757 5755 5754 5752 5750